Ambler, AK

1:11 PM AKDT on May 29, 2017 (GMT -0800)
Ambler

Weather History for PAFM - November, 2012

Change the Weather History Date:

Tuesday, November 20, 2012

  Actual Average Record
Temperature  
Mean Temperature -14 °F -  
Max Temperature -9 °F 12 °F 33 °F (2014)
Min Temperature -20 °F 3 °F -33 °F (1991)
Degree Days  
Heating Degree Days 80    
Moisture  
Dew Point -22 °F    
Average Humidity 75    
Maximum Humidity 100    
Minimum Humidity 63    
Precipitation  
Precipitation 0.00 in - - ()
Sea Level Pressure  
Sea Level Pressure 30.23 in    
Wind  
Wind Speed 1 mph (NNE)    
Max Wind Speed 7 mph    
Max Gust Speed -    
Visibility 10 miles    
Events      
Averages and records for this station are not official NWS values.
T = Trace of Precipitation, MM = Missing Value Source: NWS Daily Summary

Daily Weather History Graph

Daily Weather History Graph

Search for Another Location

Airport or City:

Trip Planner

Search our weather history database for the weather conditions in past years. The results will help you decide how hot, cold, wet, or windy it might be!

Date:

Astronomy

Nov. 20, 2012 Rise Set
Actual Time 10:56 AM AKST 3:36 PM AKST
Civil Twilight 9:36 AM AKST 4:56 PM AKST
Nautical Twilight 8:24 AM AKST 6:09 PM AKST
Astronomical Twilight 7:19 AM AKST 7:13 PM AKST
Moon 2:37 PM AKST (11/20) No Moon Set
Length of Visible Light 7h 20m
Length of Day
4h 40m
First Quarter, 53% of the Moon is Illuminated
Nov 20
First Quarter
Nov 28
Full
Dec 6
Last Quarter
Dec 12
New
Dec 19
First Quarter

Hourly Weather History & Observations

Time (AKST) Temp. Windchill Dew Point Humidity Pressure Visibility Wind Dir Wind Speed Gust Speed Precip Events Conditions
12:16 AM -18.4 °F - -23.8 °F 76% 30.28 in 10.0 mi Calm Calm - N/A   Clear
12:36 AM -18.4 °F - -23.8 °F 76% 30.29 in 10.0 mi Calm Calm - N/A   Clear
12:56 AM -16.6 °F - -20.2 °F 84% 30.30 in 10.0 mi Calm Calm - N/A   Clear
1:16 AM -16.6 °F - -23.8 °F 70% 30.29 in 10.0 mi Calm Calm - N/A   Clear
1:36 AM -14.8 °F -24.8 °F -18.4 °F 84% 30.29 in 10.0 mi NNE 3.5 mph - N/A   Clear
1:56 AM -16.6 °F -26.8 °F -23.8 °F 70% 30.29 in 10.0 mi NNE 3.5 mph - N/A   Clear
2:16 AM -16.6 °F -26.8 °F -25.6 °F 64% 30.28 in 10.0 mi North 3.5 mph - N/A   Clear
2:36 AM -14.8 °F -27.2 °F -14.8 °F 100% 30.28 in 10.0 mi NE 4.6 mph - N/A   Clear
2:56 AM -14.8 °F -30.8 °F -23.8 °F 64% 30.28 in 10.0 mi NNE 6.9 mph - N/A   Clear
3:16 AM -14.8 °F -29.1 °F -18.4 °F 84% 30.28 in 10.0 mi NNE 5.8 mph - N/A   Clear
3:36 AM -13.0 °F -27.0 °F -16.6 °F 84% 30.27 in 10.0 mi NE 5.8 mph - N/A   Clear
3:56 AM -11.2 °F -23.0 °F -18.4 °F 70% 30.27 in 10.0 mi North 4.6 mph - N/A   Clear
4:16 AM -11.2 °F -24.8 °F -16.6 °F 77% 30.27 in 10.0 mi NNE 5.8 mph - N/A   Clear
4:36 AM -13.0 °F -28.6 °F -20.2 °F 70% 30.27 in 10.0 mi NNE 6.9 mph - N/A   Clear
4:56 AM -11.2 °F -24.8 °F -16.6 °F 77% 30.26 in 10.0 mi NNE 5.8 mph - N/A   Clear
5:16 AM -11.2 °F -24.8 °F -18.4 °F 70% 30.26 in 10.0 mi NNE 5.8 mph - N/A   Clear
5:36 AM -11.2 °F -20.6 °F -14.8 °F 84% 30.26 in 10.0 mi NNE 3.5 mph - N/A   Clear
5:56 AM -9.4 °F -20.9 °F -16.6 °F 71% 30.25 in 10.0 mi NNE 4.6 mph - N/A   Clear
6:16 AM -9.4 °F -18.6 °F -16.6 °F 71% 30.25 in 10.0 mi NNE 3.5 mph - N/A   Clear
6:36 AM -11.2 °F - -16.6 °F 77% 30.26 in 10.0 mi Calm Calm - N/A   Clear
6:56 AM -14.8 °F - -22.0 °F 70% 30.26 in 10.0 mi Calm Calm - N/A   Clear
7:16 AM -16.6 °F - -25.6 °F 64% 30.25 in 10.0 mi Calm Calm - N/A   Clear
7:36 AM -16.6 °F - -23.8 °F 70% 30.26 in 10.0 mi Calm Calm - N/A   Clear
7:56 AM -20.2 °F - -27.4 °F 69% 30.25 in 10.0 mi Calm Calm - N/A   Clear
8:16 AM -20.2 °F - -29.2 °F 63% 30.26 in 10.0 mi Calm Calm - N/A   Clear
8:36 AM -18.4 °F - -23.8 °F 76% 30.25 in 10.0 mi Calm Calm - N/A   Clear
8:56 AM -16.6 °F - -20.2 °F 84% 30.25 in 10.0 mi Calm Calm - N/A   Clear
9:16 AM -18.4 °F - -27.4 °F 63% 30.25 in 10.0 mi Calm Calm - N/A   Clear
9:36 AM -20.2 °F - -27.4 °F 69% 30.24 in 10.0 mi Calm Calm - N/A   Clear
9:56 AM -18.4 °F - -23.8 °F 76% 30.24 in 10.0 mi Calm Calm - N/A   Clear
10:16 AM -18.4 °F - -23.8 °F 76% 30.24 in 10.0 mi Calm Calm - N/A   Clear
10:36 AM -18.4 °F - -25.6 °F 70% 30.24 in 7.0 mi Calm Calm - N/A   Clear
11:16 AM -16.6 °F - -20.2 °F 84% 30.23 in 10.0 mi Calm Calm - N/A   Clear
11:36 AM -16.6 °F - -20.2 °F 84% 30.24 in 10.0 mi Calm Calm - N/A   Clear
11:56 AM -18.4 °F - -25.6 °F 70% 30.24 in 10.0 mi Calm Calm - N/A   Clear
12:16 PM -16.6 °F - -20.2 °F 84% 30.23 in 10.0 mi Calm Calm - N/A   Clear
12:36 PM -16.6 °F - -20.2 °F 84% 30.23 in 10.0 mi Calm Calm - N/A   Clear
12:56 PM -16.6 °F - -23.8 °F 70% 30.22 in 10.0 mi Calm Calm - N/A   Clear
1:16 PM -16.6 °F - -20.2 °F 84% 30.22 in 10.0 mi Calm Calm - N/A   Clear
1:36 PM -14.8 °F - -18.4 °F 84% 30.23 in 10.0 mi Calm Calm - N/A   Clear
1:56 PM -14.8 °F - -16.6 °F 92% 30.23 in 10.0 mi Calm Calm - N/A   Clear
2:16 PM -13.0 °F - -18.4 °F 77% 30.22 in 10.0 mi Calm Calm - N/A   Clear
2:36 PM -14.8 °F - -20.2 °F 77% 30.21 in 10.0 mi Calm Calm - N/A   Clear
2:56 PM -14.8 °F -24.8 °F -23.8 °F 64% 30.21 in 10.0 mi NNE 3.5 mph - N/A   Clear
3:16 PM -14.8 °F -24.8 °F -18.4 °F 84% 30.21 in 10.0 mi NE 3.5 mph - N/A   Clear
3:36 PM -14.8 °F - -20.2 °F 77% 30.21 in 10.0 mi Calm Calm - N/A   Clear
3:56 PM -16.6 °F - -25.6 °F 64% 30.21 in 10.0 mi Calm Calm - N/A   Clear
4:16 PM -16.6 °F - -22.0 °F 76% 30.21 in 10.0 mi Calm Calm - N/A   Clear
4:36 PM -18.4 °F - -23.8 °F 76% 30.21 in 9.0 mi Calm Calm - N/A   Clear
4:56 PM -18.4 °F - -25.6 °F 70% 30.20 in 10.0 mi Calm Calm - N/A   Clear
5:16 PM -16.6 °F - -20.2 °F 84% 30.20 in 10.0 mi Calm Calm - N/A   Clear
5:36 PM -18.4 °F - -23.8 °F 76% 30.20 in 10.0 mi Calm Calm - N/A   Clear
5:56 PM -18.4 °F - -25.6 °F 70% 30.20 in 10.0 mi Calm Calm - N/A   Clear
6:16 PM -18.4 °F - -23.8 °F 76% 30.20 in 10.0 mi Calm Calm - N/A   Clear
6:36 PM -16.6 °F - -23.8 °F 70% 30.21 in 10.0 mi Calm Calm - N/A   Clear
6:56 PM -18.4 °F - -25.6 °F 70% 30.21 in 10.0 mi Calm Calm - N/A   Clear
7:16 PM -18.4 °F - -27.4 °F 63% 30.21 in 10.0 mi Calm Calm - N/A   Clear
7:36 PM -18.4 °F - -23.8 °F 76% 30.21 in 10.0 mi Calm Calm - N/A   Clear
7:56 PM -18.4 °F - -23.8 °F 76% 30.20 in 10.0 mi Calm Calm - N/A   Clear
8:16 PM -18.4 °F - -22.0 °F 84% 30.20 in 10.0 mi Calm Calm - N/A   Clear
8:36 PM -18.4 °F - -25.6 °F 70% 30.20 in 10.0 mi Calm Calm - N/A   Clear
8:56 PM -16.6 °F -26.8 °F -22.0 °F 76% 30.20 in 10.0 mi NNE 3.5 mph - N/A   Clear
9:16 PM -18.4 °F - -22.0 °F 84% 30.20 in 10.0 mi Calm Calm - N/A   Clear
9:36 PM -16.6 °F - -23.8 °F 70% 30.20 in 10.0 mi Calm Calm - N/A   Clear
9:56 PM -14.8 °F - -18.4 °F 84% 30.20 in 10.0 mi Calm Calm - N/A   Clear
10:16 PM -14.8 °F -24.8 °F -20.2 °F 77% 30.20 in 10.0 mi NE 3.5 mph - N/A   Clear
10:36 PM -16.6 °F - -22.0 °F 76% 30.20 in 10.0 mi Calm Calm - N/A   Clear
10:56 PM -18.4 °F - -25.6 °F 70% 30.20 in 10.0 mi Calm Calm - N/A   Clear
11:16 PM -18.4 °F - -25.6 °F 70% 30.20 in 10.0 mi Calm Calm - N/A   Clear
11:36 PM -18.4 °F - -23.8 °F 76% 30.20 in 10.0 mi Calm Calm - N/A   Clear
11:56 PM -18.4 °F - -23.8 °F 76% 30.21 in 10.0 mi Calm Calm - N/A   Clear